Time,TemperatureF,DewpointF,PressureIn,WindDirection,WindDirectionDegrees,WindSpeedMPH,WindSpeedGustMPH,Humidity,HourlyPrecipIn,Conditions,Clouds,dailyrainin,SoftwareType,DateUTC
2013-04-09 02:02:00,32.0,19.0,-100.00,NE,52,2.0,13.0,57,-99.99,,,-99.99,,2013-04-09 09:02:00,
2013-04-09 02:12:00,32.0,18.0,-100.00,NE,56,2.0,13.0,56,-99.99,,,-99.99,,2013-04-09 09:12:00,
2013-04-09 02:22:00,33.0,19.0,-100.00,ESE,112,3.0,13.0,55,-99.99,,,-99.99,,2013-04-09 09:22:00,
2013-04-09 02:30:00,32.0,19.0,-100.00,NNE,16,3.0,13.0,57,-99.99,,,-99.99,,2013-04-09 09:30:00,
2013-04-09 02:32:00,32.0,19.0,-100.00,NE,37,3.0,17.0,57,-99.99,,,-99.99,,2013-04-09 09:32:00,
2013-04-09 02:43:00,32.0,19.0,-100.00,NE,37,3.0,17.0,57,-99.99,,,-99.99,,2013-04-09 09:43:00,
2013-04-09 02:52:00,32.0,19.0,-100.00,NE,37,3.0,17.0,57,-99.99,,,-99.99,,2013-04-09 09:52:00,
2013-04-09 03:03:00,32.0,19.0,-100.00,NNE,16,3.0,13.0,57,-99.99,,,-99.99,,2013-04-09 10:03:00,
2013-04-09 03:12:00,32.0,19.0,-100.00,NNE,16,3.0,13.0,57,-99.99,,,-99.99,,2013-04-09 10:12:00,
2013-04-09 03:23:00,32.0,19.0,-100.00,NNE,16,3.0,13.0,57,-99.99,,,-99.99,,2013-04-09 10:23:00,
2013-04-09 05:12:00,32.0,18.0,-100.00,North,10,4.0,16.0,56,-99.99,,,-99.99,,2013-04-09 12:12:00,
2013-04-09 05:22:00,32.0,18.0,-100.00,North,4,5.0,16.0,56,-99.99,,,-99.99,,2013-04-09 12:22:00,
2013-04-09 05:32:00,32.0,18.0,-100.00,North,4,5.0,16.0,56,-99.99,,,-99.99,,2013-04-09 12:32:00,
2013-04-09 05:42:00,32.0,18.0,-100.00,North,4,5.0,16.0,56,-99.99,,,-99.99,,2013-04-09 12:42:00,
2013-04-09 05:52:00,32.0,19.0,-100.00,North,6,3.0,18.0,57,-99.99,,,-99.99,,2013-04-09 12:52:00,
2013-04-09 06:02:00,32.0,19.0,-100.00,North,6,3.0,18.0,57,-99.99,,,-99.99,,2013-04-09 13:02:00,
2013-04-09 06:12:00,32.0,19.0,-100.00,North,6,3.0,18.0,57,-99.99,,,-99.99,,2013-04-09 13:12:00,
2013-04-09 13:12:00,47.0,12.0,-100.00,NE,37,6.0,15.0,24,-99.99,,,-99.99,,2013-04-09 20:12:00,
2013-04-09 13:22:00,47.0,12.0,-100.00,NE,37,6.0,15.0,24,-99.99,,,-99.99,,2013-04-09 20:22:00,
2013-04-09 13:33:00,47.0,12.0,-100.00,NE,37,6.0,15.0,24,-99.99,,,-99.99,,2013-04-09 20:33:00,
2013-04-09 13:42:00,47.0,12.0,-100.00,NE,37,6.0,15.0,24,-99.99,,,-99.99,,2013-04-09 20:42:00,
2013-04-09 15:00:00,52.0,11.0,-100.00,NE,51,6.0,15.0,19,-99.99,,,-99.99,,2013-04-09 22:00:00,
2013-04-09 15:23:00,51.0,14.0,-100.00,ENE,68,6.0,17.0,22,-99.99,,,-99.99,,2013-04-09 22:23:00,
2013-04-09 15:33:00,52.0,11.0,-100.00,NE,51,6.0,15.0,19,-99.99,,,-99.99,,2013-04-09 22:33:00,
2013-04-09 15:42:00,52.0,11.0,-100.00,NE,51,6.0,15.0,19,-99.99,,,-99.99,,2013-04-09 22:42:00,
2013-04-09 15:52:00,52.0,11.0,-100.00,NE,51,6.0,15.0,19,-99.99,,,-99.99,,2013-04-09 22:52:00,
2013-04-09 17:43:00,49.0,9.0,-100.00,North,360,8.0,17.0,19,-99.99,,,-99.99,,2013-04-10 00:43:00,
2013-04-09 17:50:00,48.0,9.0,-100.00,North,360,6.0,20.0,20,-99.99,,,-99.99,,2013-04-10 00:50:00,
2013-04-09 17:52:00,49.0,9.0,-100.00,North,1,8.0,22.0,19,-99.99,,,-99.99,,2013-04-10 00:52:00,
2013-04-09 18:02:00,48.0,9.0,-100.00,North,11,7.0,16.0,20,-99.99,,,-99.99,,2013-04-10 01:02:00,
2013-04-09 18:12:00,48.0,9.0,-100.00,North,353,6.0,18.0,20,-99.99,,,-99.99,,2013-04-10 01:12:00,
2013-04-09 18:22:00,48.0,9.0,-100.00,North,360,6.0,20.0,20,-99.99,,,-99.99,,2013-04-10 01:22:00,
2013-04-09 18:32:00,48.0,9.0,-100.00,North,360,6.0,20.0,20,-99.99,,,-99.99,,2013-04-10 01:32:00,
2013-04-09 18:42:00,48.0,9.0,-100.00,North,360,6.0,20.0,20,-99.99,,,-99.99,,2013-04-10 01:42:00,
2013-04-09 19:22:00,47.0,9.0,-100.00,North,6,7.0,19.0,21,-99.99,,,-99.99,,2013-04-10 02:22:00,
2013-04-09 19:32:00,47.0,9.0,-100.00,North,6,7.0,19.0,21,-99.99,,,-99.99,,2013-04-10 02:32:00,
2013-04-09 19:42:00,47.0,9.0,-100.00,North,7,8.0,19.0,21,-99.99,,,-99.99,,2013-04-10 02:42:00,
2013-04-09 19:51:00,45.0,10.0,-100.00,SE,128,2.0,11.0,24,-99.99,,,-99.99,,2013-04-10 02:51:00,
2013-04-09 19:52:00,47.0,9.0,-100.00,North,7,8.0,19.0,21,-99.99,,,-99.99,,2013-04-10 02:52:00,
2013-04-09 20:02:00,47.0,10.0,-100.00,NE,37,4.0,13.0,22,-99.99,,,-99.99,,2013-04-10 03:02:00,
2013-04-09 20:12:00,47.0,10.0,-100.00,NE,37,4.0,13.0,22,-99.99,,,-99.99,,2013-04-10 03:12:00,
2013-04-09 20:22:00,45.0,10.0,-100.00,SE,128,2.0,11.0,24,-99.99,,,-99.99,,2013-04-10 03:22:00,
2013-04-09 20:32:00,45.0,10.0,-100.00,SE,128,2.0,11.0,24,-99.99,,,-99.99,,2013-04-10 03:32:00,
2013-04-09 20:43:00,45.0,10.0,-100.00,SE,128,2.0,11.0,24,-99.99,,,-99.99,,2013-04-10 03:43:00,
2013-04-09 22:13:00,45.0,12.0,-100.00,South,188,2.0,11.0,26,-99.99,,,-99.99,,2013-04-10 05:13:00,
2013-04-09 22:22:00,45.0,12.0,-100.00,South,188,2.0,11.0,26,-99.99,,,-99.99,,2013-04-10 05:22:00,
2013-04-09 22:32:00,45.0,13.0,-100.00,West,275,2.0,14.0,27,-99.99,,,-99.99,,2013-04-10 05:32:00,
2013-04-09 22:40:00,45.0,14.0,-100.00,South,182,1.0,11.0,28,-99.99,,,-99.99,,2013-04-10 05:40:00,
2013-04-09 22:42:00,45.0,13.0,-100.00,West,275,2.0,14.0,27,-99.99,,,-99.99,,2013-04-10 05:42:00,
2013-04-09 22:53:00,44.0,13.0,-100.00,West,265,1.0,10.0,28,-99.99,,,-99.99,,2013-04-10 05:53:00,
2013-04-09 23:02:00,44.0,13.0,-100.00,West,265,1.0,10.0,28,-99.99,,,-99.99,,2013-04-10 06:02:00,
2013-04-09 23:12:00,45.0,14.0,-100.00,South,182,1.0,11.0,28,-99.99,,,-99.99,,2013-04-10 06:12:00,
2013-04-09 23:22:00,45.0,14.0,-100.00,South,182,1.0,11.0,28,-99.99,,,-99.99,,2013-04-10 06:22:00,
2013-04-09 23:32:00,45.0,14.0,-100.00,South,182,1.0,11.0,28,-99.99,,,-99.99,,2013-04-10 06:32:00,